Wind_Speed
63 62 61 60 60 60 60 60 60 60 60 60 60 59 59 58 58 58 57 57 57 57 57 58 58 59 59 59 59 59 59 59 59 59 60 60 61 61 62 62 63 63 64 65 65 66 67 67 67 68 69 70 71 71 72 71 71 70 70 70 70 70 70 69 69 71 73 74 73 74 74 72 72 71 70 69 68 67 65 63 61 60 59 58 56
67 65 62 61 62 62 62 62 63 63 63 63 63 62 62 61 60 60 60 60 60 60 60 60 61 62 62 62 62 61 61 61 61 62 63 63 64 64 64 65 65 66 66 66 67 67 68 68 69 69 69 70 71 72 73 73 73 73 73 72 72 72 71 71 71 71 73 74 74 75 76 75 74 74 72 71 71 70 68 67 65 64 62 61 60
70 68 66 65 66 65 65 65 65 64 64 65 65 64 63 63 62 63 63 63 63 63 63 63 64 65 65 65 65 65 64 64 64 65 65 65 65 66 67 67 68 68 68 69 69 69 70 70 70 70 71 72 73 73 73 74 74 74 75 75 74 74 73 72 72 72 73 74 75 75 75 76 76 76 75 74 73 72 70 70 69 67 66 64 62
71 70 69 71 72 70 69 68 67 67 67 67 66 66 65 64 64 64 64 65 65 65 65 66 67 67 68 68 68 68 68 68 68 68 68 68 68 68 68 69 69 70 70 71 71 71 72 72 73 73 73 74 74 75 75 75 75 76 76 76 76 76 76 74 73 73 73 75 76 76 76 76 76 77 77 76 75 74 73 72 72 70 69 68 66
72 71 71 73 74 74 73 73 71 70 70 69 68 67 66 66 65 65 66 66 67 67 68 68 69 70 71 71 71 71 71 71 71 71 71 71 71 71 71 71 71 71 72 72 72 73 74 74 75 75 76 76 77 77 77 77 77 77 77 77 77 77 77 76 75 75 74 75 77 78 78 77 77 77 78 77 76 76 75 75 74 73 72 71 70
71 71 72 73 74 75 76 76 75 74 74 73 71 70 68 67 66 66 67 68 68 69 70 71 72 73 73 73 74 74 74 75 75 75 75 75 75 75 75 75 75 75 74 74 75 75 76 76 77 77 77 78 79 79 79 79 79 79 79 79 79 78 78 78 77 77 76 76 77 79 80 79 79 79 79 79 77 78 77 77 77 76 75 74 73
70 71 72 73 73 75 76 77 78 77 77 76 74 73 71 70 69 69 69 70 70 71 72 74 75 76 76 76 76 77 77 78 78 78 78 78 78 78 78 78 78 78 78 77 78 78 79 79 79 79 79 79 80 81 81 81 81 82 82 82 81 81 80 80 79 78 77 77 78 80 81 81 81 81 82 81 79 79 79 79 78 78 78 76 75
70 71 72 72 73 74 76 77 77 78 78 78 76 74 70 69 71 73 74 74 74 74 74 76 77 78 78 78 79 80 80 81 81 81 81 81 81 81 81 81 81 80 80 81 81 81 82 82 82 82 82 82 82 82 83 83 83 83 84 84 84 84 83 83 82 81 80 79 79 80 81 82 82 82 83 83 82 81 81 80 79 79 79 78 77
71 71 72 72 73 74 76 76 76 76 77 77 76 74 71 68 69 72 74 75 76 76 77 78 79 80 81 81 82 82 83 83 83 84 84 84 84 83 83 83 82 83 83 83 83 84 84 84 85 85 85 84 84 84 85 85 85 85 86 86 85 85 85 85 85 84 83 81 81 81 82 82 83 84 85 85 84 83 83 81 80 80 80 80 79
71 71 72 73 74 75 75 75 75 75 76 75 75 75 73 71 71 73 73 73 74 75 77 79 81 83 84 85 85 85 85 86 86 86 86 86 86 85 85 84 84 84 85 85 85 86 86 86 86 86 87 87 87 87 87 87 88 88 88 88 88 87 86 86 87 86 86 84 83 83 83 83 84 85 86 87 87 85 84 83 81 81 81 80 80
70 71 72 73 74 75 75 76 76 75 75 76 76 76 73 71 73 76 77 77 76 75 76 79 83 85 87 88 88 89 89 89 90 89 89 88 87 86 86 86 86 86 86 86 87 87 88 88 88 88 88 89 89 89 89 90 90 90 90 90 90 89 89 88 88 88 87 86 86 85 85 84 86 87 87 87 88 87 85 84 82 82 81 81 81
69 69 71 72 73 74 75 76 76 76 75 76 77 77 76 74 74 75 77 80 81 79 78 81 84 87 88 89 90 90 92 93 93 93 92 91 90 89 88 87 87 87 87 87 88 88 89 89 89 89 90 90 91 91 91 92 92 92 92 92 92 92 92 91 90 90 89 87 87 87 87 87 88 89 88 88 88 87 86 85 84 83 82 81 81
68 68 69 70 71 73 75 75 76 76 76 76 77 78 78 77 76 77 78 80 81 79 80 84 86 87 88 89 91 92 93 94 94 94 94 94 93 92 91 91 90 90 90 90 90 90 90 89 89 90 91 91 92 92 93 93 94 94 94 93 93 94 94 93 93 92 91 89 88 87 88 89 89 90 91 89 88 87 86 86 85 84 84 83 82
68 67 68 68 69 71 73 75 76 76 76 76 76 78 78 78 77 77 79 81 81 80 82 86 89 90 89 90 92 94 95 95 95 95 95 95 95 95 94 94 93 93 93 93 93 92 92 92 92 92 93 93 93 94 94 94 94 94 94 94 95 95 95 95 94 94 93 92 90 88 89 90 89 91 92 91 88 87 87 86 86 85 84 84 83
67 67 67 68 68 69 71 73 75 75 75 75 76 77 78 78 77 77 78 80 82 83 86 90 93 93 92 92 92 93 94 95 95 95 95 95 95 95 95 95 95 95 96 96 95 95 95 95 95 96 96 97 97 97 97 96 96 95 95 95 96 96 96 96 96 95 94 93 91 90 90 90 89 90 91 91 89 88 88 87 87 86 86 85 84
67 67 67 67 68 69 70 71 72 73 74 75 75 76 77 77 77 77 78 79 82 85 90 93 94 94 94 93 93 93 93 94 94 94 95 95 95 94 95 95 95 96 96 96 96 96 97 97 97 98 99 99 100 101 100 100 99 99 99 99 99 99 98 98 97 95 94 92 91 90 90 90 89 89 90 91 91 90 90 89 88 88 87 86 85
68 67 66 66 67 68 68 69 70 71 71 72 73 73 74 76 76 77 78 80 83 86 91 94 95 94 94 93 93 94 93 92 91 90 90 91 91 91 92 93 94 94 95 96 97 97 97 98 99 99 100 101 102 102 102 102 102 103 103 104 104 103 102 102 100 97 93 90 89 89 89 89 90 90 90 91 91 91 91 89 89 90 89 88 87
68 67 65 64 65 66 67 67 68 68 69 69 70 71 71 73 75 77 78 80 83 87 91 95 96 96 95 94 95 95 94 91 89 87 86 86 86 86 86 86 87 87 88 91 94 96 97 98 99 99 99 100 101 102 103 105 106 107 107 107 106 106 106 105 103 98 93 89 87 86 86 88 89 90 91 92 92 91 90 90 91 92 90 88 88
68 65 64 63 63 64 65 65 65 66 66 67 68 68 69 71 73 75 77 79 82 86 90 94 97 98 98 97 97 97 96 94 92 90 87 86 85 84 83 83 83 83 83 84 88 91 93 96 97 98 99 100 101 102 104 106 107 108 108 107 106 106 107 106 103 98 94 90 88 87 87 88 89 90 91 92 93 92 90 90 92 93 91 89 89
66 64 63 63 63 62 63 63 63 63 64 65 66 67 68 70 71 73 76 78 81 84 88 93 96 98 99 99 99 98 98 98 96 93 90 87 85 84 82 80 79 78 76 77 79 83 86 89 92 95 97 99 101 102 104 104 105 105 105 104 104 104 104 103 100 97 95 93 91 90 89 90 90 91 92 93 94 93 92 91 91 92 91 91 90
65 63 62 62 62 61 61 61 61 60 61 62 64 65 66 68 70 73 75 78 79 82 86 90 93 96 97 98 99 99 98 98 97 95 92 89 87 85 82 78 74 71 69 69 71 74 78 82 85 89 93 96 98 99 100 100 100 99 98 98 97 97 96 94 93 93 93 93 93 93 93 93 93 93 94 95 96 96 94 92 91 91 90 90 90
63 62 61 61 61 61 61 61 61 60 60 60 62 63 64 66 68 71 74 77 78 79 82 86 89 91 93 95 97 97 97 98 97 96 93 91 89 86 80 75 69 65 62 62 65 68 71 75 79 84 88 92 94 94 93 93 92 91 90 88 87 85 84 82 82 84 85 87 90 92 93 94 95 96 96 97 98 98 97 95 93 91 89 89 89
61 60 60 60 61 60 60 61 61 60 60 60 61 63 64 65 67 69 72 75 76 78 80 82 84 85 87 88 90 92 93 95 95 94 93 90 87 82 75 69 63 60 58 58 60 63 67 72 77 82 86 87 87 87 85 84 83 81 79 77 74 72 70 68 69 72 75 78 82 86 90 93 96 97 98 99 99 99 98 97 94 91 88 87 87
57 57 58 59 59 59 58 59 59 60 61 61 62 64 66 66 67 69 71 73 75 77 78 79 80 80 81 81 82 84 86 87 87 87 86 83 79 74 70 64 61 59 58 58 60 64 68 72 76 79 81 82 82 81 80 78 76 74 72 70 66 64 62 60 62 64 67 70 75 79 84 89 93 96 97 98 98 97 96 96 94 91 88 85 85
53 55 55 56 56 56 56 56 57 59 60 61 62 64 66 67 68 70 72 74 75 75 75 76 76 76 76 77 79 80 80 80 81 80 78 76 72 68 65 62 61 59 58 60 64 67 68 70 72 74 76 77 77 76 75 74 72 71 69 66 63 61 59 59 59 61 63 66 70 73 78 83 87 91 93 94 93 93 92 92 92 91 89 85 83
53 54 54 54 54 54 55 56 57 58 59 60 61 62 64 66 68 70 72 73 74 74 73 73 73 73 74 74 75 76 77 76 76 74 73 70 67 64 62 60 59 59 62 65 65 64 63 64 66 68 69 70 70 70 69 68 67 66 64 62 60 58 57 56 56 57 59 63 66 70 73 77 80 83 85 87 88 89 89 89 88 89 89 87 84
53 53 53 53 54 55 56 57 57 58 58 59 60 61 63 65 67 68 70 71 72 72 71 71 71 71 71 72 72 73 73 72 70 69 67 65 62 60 59 58 59 63 66 64 60 58 58 59 60 61 62 62 63 62 62 62 61 59 58 56 54 52 51 51 51 53 56 59 63 66 68 71 72 74 77 79 81 84 85 85 84 85 86 87 86
51 51 51 52 53 54 55 56 56 57 57 58 59 61 62 63 64 66 67 69 69 69 69 69 69 69 69 69 69 69 68 67 66 64 62 60 58 57 57 60 63 65 61 55 53 54 54 53 53 54 55 56 56 56 55 55 54 52 51 49 47 45 45 45 46 48 51 54 57 60 62 64 65 67 69 71 74 77 80 80 81 82 83 85 85
47 47 48 50 51 51 51 52 52 53 54 55 56 58 58 59 60 62 63 64 64 65 65 66 67 67 66 65 65 64 63 62 61 59 58 57 57 58 61 63 62 57 51 49 50 50 48 47 48 50 50 50 51 51 49 48 47 47 46 45 43 42 42 42 43 45 47 49 52 54 56 58 59 61 62 64 66 69 72 74 76 78 80 81 83
44 44 44 45 45 45 45 46 47 49 49 50 51 52 53 54 55 56 57 58 59 60 61 62 63 63 62 60 59 59 58 57 56 56 56 57 59 61 62 59 53 47 46 47 46 44 43 45 46 46 46 46 46 46 45 45 45 45 44 44 43 42 41 40 41 43 44 46 49 51 52 53 54 56 57 58 60 62 64 67 69 72 75 77 81
41 40 40 40 39 39 40 41 43 44 45 45 45 46 47 49 51 51 52 54 55 55 56 57 58 57 56 55 54 53 53 53 53 54 55 58 60 59 55 49 44 42 43 43 41 40 42 44 43 43 43 43 43 43 43 43 43 43 42 42 41 40 39 39 38 39 42 45 47 49 49 50 51 52 52 53 55 56 58 60 63 67 70 74 78
38 37 37 36 36 36 37 39 40 40 40 40 41 42 44 45 46 47 47 48 49 50 51 52 52 52 51 50 49 49 49 49 50 53 56 57 56 53 48 43 40 40 40 39 39 40 41 41 41 41 41 41 41 41 41 41 40 40 39 39 37 36 36 36 35 36 39 42 44 45 46 47 47 48 48 49 50 51 53 56 58 62 65 69 73
35 36 35 35 35 36 37 38 39 38 38 38 39 40 41 42 42 42 42 43 44 45 47 47 47 47 46 45 45 45 46 47 49 52 54 53 50 46 42 38 37 38 38 38 39 39 38 38 39 39 39 39 39 38 38 37 37 36 36 35 34 33 32 32 32 33 35 37 39 41 42 43 43 44 45 46 47 48 50 52 54 57 61 65 69
34 34 34 35 36 36 36 37 37 36 36 36 36 36 37 38 38 38 38 39 40 41 42 42 42 42 42 42 42 43 43 45 48 50 50 47 45 42 38 35 34 36 37 38 37 36 36 36 36 37 37 37 36 35 34 33 33 33 33 32 30 29 28 28 29 30 32 33 35 36 37 37 38 39 41 43 45 46 47 48 51 54 58 61 64
34 34 35 36 36 36 34 34 34 34 33 33 32 32 32 33 33 34 35 35 36 37 37 37 38 38 39 40 41 40 41 44 47 47 45 43 41 38 35 33 33 34 35 35 35 35 34 34 34 34 34 34 33 33 31 30 30 30 28 27 26 25 24 25 27 28 30 30 31 31 31 32 33 35 37 39 41 43 44 46 49 51 55 58 60
34 35 35 35 34 33 32 32 31 31 30 29 29 29 29 29 30 31 32 32 33 33 34 35 37 38 40 40 39 38 40 43 44 42 41 39 37 34 32 32 32 32 33 33 34 33 32 31 30 31 31 30 30 29 29 28 26 25 24 23 23 22 23 23 25 26 27 27 27 27 28 29 31 32 34 36 38 40 42 44 47 49 51 54 56
34 34 33 32 31 31 31 30 30 29 29 28 28 27 27 28 29 30 30 31 32 33 34 36 38 39 39 38 36 37 40 41 40 39 38 36 33 32 31 30 30 30 31 32 32 31 30 28 28 28 27 27 27 27 27 25 23 22 21 21 21 21 21 21 22 23 24 24 24 25 26 28 29 31 32 33 35 36 39 41 44 45 48 50 51
33 32 31 31 31 31 30 30 29 29 29 28 27 27 27 28 29 30 31 32 33 34 35 37 39 39 37 35 34 36 38 38 36 36 35 33 30 30 30 29 28 29 30 30 30 29 26 25 25 25 24 24 25 25 24 23 21 20 20 20 20 20 19 19 19 20 21 22 23 24 25 26 27 28 29 30 31 33 35 38 40 42 44 46 47
33 32 31 31 31 31 30 30 30 30 30 30 29 29 29 30 31 31 31 32 33 34 36 37 38 37 34 32 33 34 35 34 34 33 32 30 28 29 29 29 28 27 27 28 27 26 24 23 23 23 22 23 23 23 22 21 20 19 19 19 19 19 18 17 17 18 19 20 21 22 23 24 25 26 27 28 29 30 32 34 35 37 39 41 43
33 33 32 32 32 32 31 31 31 31 31 31 31 31 31 31 31 31 32 33 34 34 35 37 37 34 31 31 32 32 32 31 32 31 29 27 26 27 28 28 27 25 25 25 24 24 22 21 21 21 21 22 22 22 21 20 19 18 18 18 18 17 17 16 16 17 18 18 19 20 21 22 23 23 24 25 27 28 29 31 32 34 36 38 40
35 34 34 34 35 35 33 32 32 32 31 31 31 31 31 31 31 32 33 34 33 33 35 36 34 32 30 30 30 30 30 30 30 30 28 26 25 26 27 27 26 24 24 23 22 22 21 20 20 20 21 21 21 20 19 18 18 17 17 16 16 16 15 15 16 16 16 16 17 18 19 19 20 20 21 23 24 26 27 28 30 31 33 35 37
37 37 36 37 38 37 35 34 34 32 31 31 31 32 32 31 32 33 34 34 33 33 34 35 32 30 29 29 29 29 29 29 29 29 27 24 23 24 25 25 25 24 23 21 20 20 20 19 19 20 20 20 20 19 18 17 17 16 16 15 15 15 14 15 15 14 14 14 14 15 16 16 17 18 19 20 21 23 24 25 26 27 29 31 33
38 38 39 39 39 38 36 35 34 33 32 32 33 33 33 33 33 33 33 32 31 33 34 32 29 28 28 27 27 28 28 28 28 28 26 23 21 22 23 24 24 24 21 19 18 19 18 18 19 19 19 19 19 18 18 17 17 16 15 15 14 14 14 14 14 13 12 11 12 13 14 14 14 15 16 17 18 20 21 22 23 25 27 28 30
39 39 40 39 38 37 36 36 35 35 34 34 34 34 34 34 33 33 32 31 31 33 33 31 28 27 27 26 26 27 28 28 28 28 25 21 19 20 22 24 24 23 20 17 17 18 18 18 19 19 18 18 18 18 18 18 18 17 15 14 14 13 14 14 14 12 11 10 11 12 13 13 13 13 14 14 15 16 18 20 21 23 24 26 28
41 42 42 41 40 39 38 37 37 36 36 36 36 36 35 34 33 32 31 30 31 33 33 29 26 26 26 26 26 27 28 27 27 27 24 21 19 20 22 23 23 22 19 17 17 18 18 18 18 18 18 17 17 17 18 19 18 17 16 14 14 13 14 14 14 12 11 10 11 12 12 11 11 12 12 12 12 14 15 17 19 21 23 25 27
43 43 43 42 41 40 40 39 38 38 38 37 37 36 35 33 32 31 30 30 31 33 32 29 26 26 26 26 26 27 27 27 26 26 23 21 19 20 21 22 22 21 18 17 17 17 17 17 17 17 17 17 17 18 18 19 18 17 15 14 13 13 14 14 13 12 11 11 11 11 11 11 11 11 11 10 11 12 14 16 17 19 21 23 25
43 43 43 43 42 41 41 40 40 40 39 38 37 36 35 33 32 31 30 30 31 32 32 29 26 25 26 26 26 27 27 26 26 25 23 21 20 20 21 21 21 20 18 17 17 17 16 17 17 17 18 18 17 17 18 19 18 17 15 14 13 13 13 13 12 12 11 11 11 10 10 10 10 10 10 10 10 11 13 15 16 18 20 22 24
43 44 44 44 43 43 42 42 41 41 40 39 38 37 35 33 32 31 30 29 30 32 31 28 26 26 26 26 27 27 27 26 26 25 23 21 20 20 20 21 20 19 18 17 17 17 17 17 17 17 18 19 18 18 19 20 19 18 16 14 14 13 13 13 12 11 10 10 10 9 9 10 10 10 10 10 11 11 13 15 17 18 20 21 23
44 44 44 44 44 44 43 43 42 41 40 39 38 37 35 33 33 31 30 29 30 31 30 28 26 26 26 26 27 27 27 26 26 25 23 21 20 19 20 21 21 19 17 16 17 17 16 16 16 16 18 19 19 19 20 21 20 19 18 16 15 14 14 13 12 11 10 10 9 8 9 10 10 10 10 11 12 13 14 16 17 19 20 21 22
45 45 45 45 44 44 43 43 42 41 41 40 39 37 35 34 33 31 30 30 31 31 30 27 27 27 27 27 28 28 27 27 26 25 24 22 20 19 20 21 20 19 17 16 16 15 14 14 14 15 17 19 20 20 21 22 22 21 20 19 18 17 15 14 13 12 11 10 9 9 9 10 10 10 10 11 12 13 14 15 16 18 19 20 21
46 46 46 46 45 44 44 43 43 42 41 40 39 37 36 34 33 31 30 30 31 31 30 28 27 27 28 28 28 28 28 27 27 26 25 23 20 20 20 21 20 18 17 16 15 14 13 13 14 15 17 19 20 20 21 23 23 23 23 22 20 19 18 16 15 14 13 12 11 10 10 11 11 11 11 11 12 13 14 15 16 17 18 19 21
Wind_Direction
258 257 257 257 257 257 257 257 256 255 254 253 252 251 250 250 250 250 249 250 250 250 249 249 249 249 249 249 249 249 249 248 249 249 249 249 249 249 249 249 249 249 249 249 250 250 250 250 249 249 249 249 249 250 250 250 250 250 250 249 249 248 247 247 247 250 252 251 251 252 254 255 256 256 256 258 259 259 259 259 258 258 258 259 259
260 259 258 258 257 257 256 255 255 255 254 254 253 252 251 250 250 250 250 249 249 249 249 249 249 249 249 249 249 249 248 248 248 248 248 248 248 249 249 249 249 250 250 250 250 250 251 251 251 251 251 250 250 250 250 250 250 250 250 250 249 248 248 247 247 249 252 252 251 251 252 252 253 254 255 255 256 257 258 259 259 258 257 257 257
261 261 261 260 258 257 256 256 255 255 255 255 254 254 253 252 251 251 251 251 250 250 249 249 249 249 249 249 249 249 249 249 249 249 249 249 249 249 249 249 249 249 249 250 250 250 251 251 251 251 251 251 251 251 251 251 251 251 251 250 250 249 248 247 247 247 250 252 253 252 251 251 251 252 252 253 254 255 256 257 257 258 258 257 256
260 261 261 260 259 257 256 256 255 255 255 255 255 255 255 254 254 253 253 253 252 252 251 251 250 250 250 250 250 249 249 249 249 249 250 250 250 250 250 250 250 250 249 249 250 250 251 251 251 252 252 252 252 252 252 251 251 251 251 251 251 250 250 248 247 246 247 250 252 253 252 252 251 250 250 251 252 252 253 254 255 256 257 257 257
260 259 259 259 259 259 258 257 255 254 254 255 255 255 256 256 255 255 255 255 254 254 253 252 252 251 251 251 251 250 250 250 250 250 250 250 250 251 251 251 251 251 251 250 250 250 250 250 251 251 251 252 252 253 253 252 252 252 252 252 251 251 251 250 249 247 247 248 251 252 252 252 252 251 250 250 250 250 251 252 252 253 255 256 257
260 259 258 258 258 258 258 258 256 255 254 253 254 254 254 255 255 256 256 255 255 255 255 254 253 253 252 251 251 251 251 251 251 250 250 250 250 250 250 251 251 251 251 251 251 251 251 251 251 251 251 252 252 253 253 253 253 253 253 253 252 252 251 251 250 249 248 247 249 251 252 252 252 252 252 251 249 249 249 250 250 251 252 254 255
262 261 259 258 257 257 257 257 257 256 255 254 253 253 253 254 254 255 255 255 255 255 255 255 255 254 254 253 252 252 251 251 251 251 251 251 251 250 250 250 250 251 251 251 251 251 252 252 252 252 252 252 252 252 253 253 253 253 254 254 253 253 252 252 251 250 249 248 249 250 251 251 252 252 252 252 250 250 249 249 249 249 250 251 253
263 262 261 259 258 257 256 256 256 256 256 255 254 253 254 255 256 255 254 254 253 253 254 254 255 255 255 254 254 253 252 252 252 251 251 251 251 251 251 251 251 251 251 251 251 252 252 252 253 253 253 253 253 253 253 253 253 253 253 253 253 253 253 253 252 251 250 249 249 249 250 251 251 252 252 252 251 250 250 249 249 249 249 249 250
263 262 262 261 260 258 257 257 256 256 256 256 255 254 252 252 254 256 255 254 253 253 253 254 254 254 254 254 254 254 253 253 252 252 252 251 251 251 252 252 252 252 252 252 252 252 253 253 253 253 254 254 254 254 254 253 253 253 253 253 253 253 253 253 253 252 251 250 249 249 250 250 251 251 252 252 252 251 250 250 249 249 249 249 249
263 263 262 261 261 260 259 258 257 256 255 255 255 254 252 249 249 252 253 253 252 252 252 253 253 253 253 253 252 252 252 253 252 252 252 252 252 252 252 252 253 253 253 253 254 254 254 254 254 254 254 255 255 254 254 254 254 253 253 253 253 252 252 252 253 253 252 251 250 250 249 249 250 250 250 251 252 251 251 250 249 250 250 250 250
263 264 263 262 261 261 260 259 258 256 255 254 253 252 251 249 248 248 249 251 250 249 250 250 251 251 251 252 252 252 252 252 251 252 252 252 252 253 253 253 253 253 253 254 254 255 255 255 255 255 255 255 255 255 255 255 255 254 254 254 254 253 253 252 252 252 252 252 252 251 250 250 250 250 249 250 251 251 251 250 250 249 250 250 250
262 263 264 263 263 262 260 259 259 257 255 254 253 252 250 249 248 247 247 249 250 249 250 250 251 251 251 251 252 252 252 252 252 252 252 252 252 253 253 253 254 254 254 254 254 255 255 255 256 256 256 256 256 256 256 256 255 255 255 255 254 254 254 253 253 252 251 251 251 251 251 251 251 251 250 249 249 250 250 251 250 249 249 249 250
260 261 262 262 262 262 261 260 259 258 256 255 253 253 251 249 248 247 247 248 250 250 250 250 251 251 251 251 251 252 252 252 252 252 252 253 253 253 253 253 254 254 254 255 255 255 256 256 256 257 257 257 256 256 256 256 256 256 256 256 255 255 255 254 254 253 253 251 250 250 250 250 251 252 251 250 249 249 250 250 250 249 249 248 248
260 260 260 260 260 260 260 260 259 258 257 256 254 253 252 251 249 248 247 247 248 249 250 251 252 251 251 251 251 251 252 252 253 253 253 254 254 254 254 254 254 254 255 255 255 256 256 256 257 257 257 257 257 257 257 257 257 257 257 256 256 256 255 255 254 254 253 253 252 250 250 250 250 251 252 252 251 250 250 250 250 250 249 249 248
261 261 261 260 259 258 258 258 258 258 257 256 255 253 252 251 249 248 247 246 246 247 248 250 252 252 252 252 252 253 253 254 254 255 255 255 255 256 256 256 255 255 256 256 256 256 257 257 257 257 258 258 258 258 258 258 258 258 257 257 257 256 256 255 254 254 253 253 253 252 251 251 250 249 251 252 252 251 250 250 250 250 250 249 249
261 261 261 261 260 259 257 256 256 256 256 255 255 254 254 252 250 248 247 246 245 245 247 249 251 253 254 255 255 255 255 256 256 257 258 258 258 258 259 258 258 258 258 258 258 258 258 258 258 258 258 258 259 259 259 259 259 259 258 258 257 257 256 255 254 253 253 252 252 253 253 253 252 251 250 251 251 251 251 250 250 250 249 249 249
262 260 259 259 259 259 258 257 256 255 255 255 255 254 254 253 252 249 247 245 244 245 247 249 251 253 255 256 257 258 258 258 258 259 259 260 260 261 261 262 261 261 261 261 261 261 261 260 260 260 260 260 260 260 260 260 260 259 259 258 258 257 257 256 255 254 253 252 252 252 253 253 253 253 252 251 250 250 250 250 250 249 249 248 249
262 261 260 258 257 256 256 256 256 256 255 255 255 254 253 253 252 251 249 246 245 245 246 248 251 253 255 256 258 259 261 261 261 261 261 261 261 261 262 262 263 263 264 264 263 263 263 263 263 262 262 262 262 262 261 261 260 259 258 258 257 257 257 257 256 255 254 253 252 252 251 252 252 253 253 252 251 250 249 249 249 249 248 248 248
263 262 262 260 258 256 255 254 254 254 255 255 255 255 254 253 252 251 250 248 247 246 246 248 250 252 254 255 257 259 262 264 264 264 264 264 264 263 264 264 264 265 265 265 264 264 264 264 264 264 263 263 262 261 261 260 259 259 258 258 258 258 258 258 258 258 257 255 254 252 251 250 250 251 252 252 252 251 249 248 248 248 248 247 247
263 263 262 261 260 258 256 255 253 252 252 253 254 254 254 254 253 252 251 250 248 247 247 247 249 251 253 255 256 259 261 263 265 267 268 269 269 269 269 268 268 267 266 265 264 264 264 263 263 262 262 262 261 261 260 260 259 259 259 259 259 259 259 259 259 259 259 258 256 254 252 251 250 249 250 251 251 251 250 248 247 247 247 246 246
263 262 261 261 260 260 259 258 257 254 253 252 252 252 252 253 253 253 253 252 250 249 248 249 249 251 252 254 256 258 260 263 265 268 269 271 272 272 272 272 271 270 269 268 266 264 263 262 262 262 261 261 261 261 261 261 261 261 261 261 262 262 262 262 262 261 259 258 257 255 253 252 250 249 248 248 249 250 249 248 247 247 246 246 246
261 261 260 260 260 259 259 259 259 257 256 255 255 254 253 253 253 253 254 254 254 253 252 252 252 252 253 255 257 259 261 263 265 267 269 271 272 272 273 273 273 272 271 269 266 263 261 261 260 260 260 260 261 262 263 264 264 265 266 266 266 266 266 265 264 262 259 257 255 254 253 251 250 249 248 247 247 247 248 248 247 246 245 245 245
260 260 260 259 259 259 258 259 259 260 259 258 257 257 255 254 254 254 254 255 255 255 255 255 256 256 256 257 258 259 261 262 264 266 268 269 270 272 273 274 274 272 270 267 263 261 260 259 258 258 260 261 264 266 267 268 269 270 270 270 269 268 267 265 263 261 259 256 254 252 251 250 249 248 247 246 246 245 245 246 246 246 245 244 245
259 258 258 258 258 258 257 257 257 258 257 257 257 256 256 256 255 255 255 255 255 256 256 257 258 259 260 260 260 260 261 262 264 265 267 268 270 272 273 274 273 271 268 265 261 259 258 258 259 261 263 265 267 269 270 271 272 272 272 272 271 269 267 265 262 259 256 254 252 251 249 248 248 247 247 246 246 245 245 245 246 246 246 245 244
259 259 258 257 257 257 256 256 255 254 254 254 254 254 255 256 256 256 256 256 256 257 257 258 259 260 260 261 261 262 262 263 264 265 267 269 271 272 273 273 271 270 267 264 261 259 259 261 263 265 266 268 269 270 271 272 273 273 273 273 272 270 268 264 261 258 255 254 252 250 249 248 248 247 247 247 247 246 246 245 245 246 246 245 244
260 259 259 259 260 259 258 257 256 255 254 253 252 252 252 253 253 254 255 256 257 258 258 259 260 260 260 261 261 262 262 263 264 266 268 270 271 272 272 272 271 270 267 264 263 264 266 267 267 267 268 269 270 271 271 272 272 272 272 272 271 269 267 263 260 257 255 253 252 250 250 249 249 248 248 248 247 247 246 245 244 244 245 245 244
257 257 258 259 258 258 257 257 256 256 255 254 253 252 251 251 252 253 254 255 257 258 259 259 260 260 260 260 261 261 262 264 266 268 269 271 271 271 271 272 271 268 266 267 270 271 271 269 269 269 269 270 270 270 271 272 272 272 272 271 269 267 265 263 260 257 255 254 253 252 251 251 250 250 249 248 247 247 247 246 245 244 244 244 244
254 254 255 254 254 254 254 255 255 255 254 254 253 252 251 251 251 252 252 254 255 257 258 259 259 259 260 260 260 261 263 265 267 269 270 271 272 272 271 270 267 267 269 273 275 273 271 270 270 270 269 270 270 271 271 272 272 272 271 270 268 266 265 262 260 258 256 255 254 253 253 252 251 250 249 248 247 247 246 246 245 243 243 243 243
254 254 253 253 253 253 253 253 252 252 251 251 250 250 250 250 250 251 252 253 253 255 256 257 258 259 259 260 262 263 265 266 268 269 271 271 270 269 267 266 267 272 277 277 274 273 273 272 271 270 270 270 271 271 272 272 271 271 271 270 268 266 264 261 259 257 256 255 254 254 253 252 251 251 249 248 247 246 245 245 244 243 242 241 241
257 256 255 255 255 254 253 251 250 249 248 247 247 248 248 248 248 249 250 251 252 253 254 256 257 258 260 262 264 265 267 268 269 270 269 268 266 265 264 267 273 278 278 275 274 274 274 272 271 271 271 271 271 271 271 271 271 271 270 269 268 266 263 260 258 256 255 255 254 253 253 252 251 250 249 248 247 245 244 244 242 242 241 240 239
259 257 256 255 254 252 251 249 247 246 246 245 245 245 246 246 247 248 250 252 254 255 256 257 259 261 262 264 265 266 267 268 269 269 268 266 265 266 269 275 279 279 276 275 275 274 272 271 272 271 271 271 271 271 271 270 269 269 269 268 267 265 263 260 256 254 253 252 252 252 252 251 251 250 249 248 247 245 244 242 241 240 239 238 238
257 255 253 252 250 249 248 248 247 247 247 246 246 245 246 247 249 250 252 254 256 257 258 260 261 263 264 265 267 268 268 267 267 266 265 265 267 271 276 279 280 278 276 275 274 271 270 270 271 271 271 271 270 269 269 269 269 268 268 267 266 264 263 260 256 253 252 252 252 252 252 251 251 251 250 249 248 246 244 242 240 239 238 237 237
253 251 250 249 248 246 245 246 247 247 246 246 245 245 246 248 250 251 253 254 256 258 259 261 263 265 267 268 269 268 268 267 266 265 266 268 272 275 278 279 278 277 275 272 270 270 270 270 270 271 270 270 269 268 268 269 269 269 268 267 266 264 262 261 258 255 253 253 253 253 253 252 252 251 250 249 248 246 243 241 240 238 237 237 236
248 247 246 245 244 243 242 243 243 244 244 243 243 244 245 247 249 251 253 255 257 260 262 265 267 268 269 268 267 266 266 267 266 267 269 273 276 277 279 278 275 272 270 270 270 270 270 271 270 270 270 270 270 270 270 269 269 269 269 268 268 266 264 262 260 257 255 254 253 253 254 253 252 250 249 248 247 246 244 242 240 238 237 236 236
244 243 242 241 241 241 241 240 240 241 243 244 245 246 247 249 251 253 256 258 261 264 267 269 270 270 269 267 266 266 266 266 267 269 272 274 276 277 277 275 271 268 268 269 270 271 271 270 270 269 270 271 271 272 272 271 270 270 270 270 269 267 264 261 259 257 256 256 255 255 255 254 251 249 247 246 245 245 243 242 240 239 238 236 236
242 241 240 240 241 241 240 238 238 240 242 245 247 250 251 253 255 257 259 262 264 267 269 270 270 270 270 268 268 268 267 267 268 271 273 274 275 275 273 270 268 268 269 270 271 272 271 270 270 270 271 272 272 273 273 272 271 271 270 269 266 263 260 257 256 257 258 258 258 257 256 253 251 248 246 245 244 243 242 241 240 239 238 237 236
241 241 240 239 238 237 236 236 238 240 242 246 249 252 254 256 258 259 262 264 267 269 270 270 270 268 268 268 269 268 267 268 270 271 272 272 273 272 271 269 268 269 270 270 270 271 271 271 270 270 270 272 273 272 273 273 273 271 268 265 262 261 259 257 256 256 257 257 257 256 254 253 251 250 249 247 245 243 242 241 240 239 238 238 237
240 239 238 236 235 234 235 236 237 240 244 247 251 254 257 258 259 261 264 266 269 270 271 271 270 268 268 268 268 267 266 268 269 269 269 270 270 270 269 269 269 269 270 270 270 271 271 271 270 270 271 272 272 272 273 274 274 272 268 263 260 259 258 256 254 255 255 255 255 254 254 253 253 252 251 249 247 244 242 241 240 239 238 237 236
237 236 234 234 234 234 235 236 239 242 245 249 252 256 258 260 261 263 266 268 269 270 271 271 270 269 270 269 267 266 266 265 265 264 265 267 268 268 269 270 270 269 269 269 270 272 272 271 271 271 272 272 272 273 274 273 272 269 264 260 257 256 255 253 252 252 253 254 254 253 253 253 252 251 251 250 248 246 243 241 240 238 237 236 235
233 232 232 233 234 235 236 237 240 242 245 248 252 255 257 259 262 265 267 268 269 270 271 271 270 270 271 269 266 264 263 261 260 261 263 263 265 267 269 271 271 270 268 267 268 270 271 271 272 273 273 273 273 273 272 269 266 262 256 253 251 251 249 247 247 249 252 254 253 252 251 250 250 250 250 249 247 245 243 240 238 236 234 233 232
230 230 229 230 232 234 235 236 238 240 243 247 250 253 255 259 262 266 268 269 269 270 270 270 270 270 269 267 263 261 259 257 257 259 261 261 262 265 267 270 270 269 267 265 266 268 269 271 273 274 274 273 271 270 267 262 257 252 248 246 244 244 242 242 244 248 252 254 253 251 249 249 250 250 250 249 246 243 240 238 236 234 232 231 230
228 228 228 229 231 233 234 234 236 239 242 246 249 252 255 259 263 267 268 269 269 270 269 269 269 269 266 262 259 257 255 254 255 258 260 260 262 263 266 267 267 266 265 264 265 268 270 272 274 274 273 271 268 264 258 252 247 244 243 242 241 239 238 237 241 246 252 254 254 250 249 249 251 252 251 248 244 239 236 233 231 230 230 229 228
228 229 229 231 232 233 234 236 238 240 243 246 250 253 257 261 264 266 267 268 269 268 268 268 268 266 262 257 254 252 251 252 255 257 259 260 261 263 263 264 264 263 262 263 267 270 272 274 274 273 271 268 263 256 249 243 240 238 238 239 239 237 233 232 235 242 250 255 255 251 247 246 248 249 247 244 240 235 231 228 225 224 223 223 224
229 230 232 234 235 236 237 239 242 244 246 248 252 255 258 261 263 265 265 267 268 267 267 267 265 261 257 252 248 246 248 250 253 257 260 261 260 259 259 260 262 262 263 265 269 272 273 274 274 271 267 262 256 248 241 236 234 234 236 237 238 235 229 226 229 236 246 254 252 246 243 242 243 242 239 236 234 231 228 225 223 220 219 218 219
228 230 232 234 235 237 239 241 243 245 247 249 252 254 257 259 261 262 263 265 266 267 267 265 261 256 252 246 242 242 245 248 252 257 260 261 259 256 255 257 260 262 263 265 269 272 272 272 271 269 263 255 247 240 235 232 231 233 235 237 238 234 226 222 224 230 239 247 247 241 237 236 237 234 230 228 227 227 225 223 221 219 217 216 216
227 229 231 233 234 236 238 239 241 244 246 247 250 252 255 256 258 260 262 263 264 265 265 262 257 252 247 241 238 239 243 246 251 256 259 260 258 255 253 255 258 261 264 266 269 271 270 268 267 265 260 251 240 233 230 229 229 232 235 238 238 233 226 221 222 226 233 238 240 236 230 227 227 225 221 219 220 222 221 219 217 215 214 213 214
228 230 232 233 234 235 237 238 240 242 244 246 248 250 252 253 255 257 258 259 261 263 263 260 254 249 243 236 235 238 241 245 250 254 257 258 258 256 255 256 258 261 264 267 269 270 268 266 264 261 256 249 238 228 224 224 225 228 232 234 234 229 224 220 220 222 225 229 231 229 224 219 217 215 210 208 212 216 216 213 211 209 208 209 210
229 230 232 233 233 235 236 238 239 241 243 245 247 248 249 250 252 253 254 255 258 260 260 257 251 245 239 233 233 236 240 243 248 252 254 256 256 256 258 260 261 262 265 268 270 270 269 266 262 256 250 244 236 226 220 220 220 221 225 228 228 224 219 215 213 214 216 218 221 221 219 214 209 205 202 200 202 207 209 206 204 204 203 204 205
230 231 232 233 234 235 236 238 239 241 243 244 246 247 248 248 249 250 251 253 256 258 257 254 249 243 236 231 231 234 237 241 246 250 252 254 254 255 259 262 264 265 267 270 271 271 268 264 258 250 242 239 233 224 218 217 218 217 218 221 222 220 216 211 208 207 211 215 215 212 211 209 204 199 198 197 198 201 204 203 199 198 198 199 200
232 233 234 234 235 236 237 238 240 241 242 244 245 245 246 246 247 248 250 251 253 255 254 251 246 240 234 229 229 232 235 238 243 247 250 251 251 254 258 262 265 267 270 271 270 267 261 255 250 242 235 234 232 226 218 215 215 215 215 217 218 218 217 215 212 210 213 218 217 210 207 206 203 197 195 196 197 200 203 202 198 195 194 194 195
234 235 236 237 237 237 238 239 240 241 242 243 244 244 244 245 246 247 248 249 251 252 252 248 243 238 232 227 227 230 233 236 239 244 248 249 249 251 256 260 265 269 271 270 267 261 250 241 235 230 226 227 230 228 222 217 215 214 215 216 216 217 219 221 222 222 221 221 220 216 210 206 201 197 194 193 195 198 199 198 195 193 192 192 193
Height
10510 10513 10517 10519 10520 10522 10523 10525 10526 10527 10529 10531 10533 10535 10538 10541 10543 10545 10547 10549 10551 10553 10554 10556 10557 10558 10559 10561 10562 10564 10566 10568 10570 10571 10573 10574 10575 10577 10578 10580 10581 10582 10584 10586 10587 10589 10590 10592 10595 10597 10599 10600 10601 10603 10604 10606 10608 10609 10611 10614 10616 10618 10621 10624 10625 10621 10618 10621 10626 10626 10629 10632 10633 10634 10636 10637 10637 10640 10642 10643 10645 10645 10646 10647 10649
10500 10504 10509 10512 10513 10514 10515 10516 10517 10518 10520 10521 10523 10526 10529 10532 10534 10536 10538 10540 10542 10543 10545 10546 10547 10548 10550 10551 10553 10555 10557 10559 10561 10562 10563 10565 10566 10568 10569 10570 10572 10574 10575 10577 10578 10580 10581 10583 10586 10588 10590 10591 10592 10594 10595 10597 10599 10600 10602 10604 10606 10608 10612 10615 10618 10617 10612 10611 10615 10618 10620 10623 10625 10625 10628 10630 10631 10633 10636 10636 10637 10638 10640 10641 10642
10492 10495 10501 10503 10502 10503 10505 10507 10508 10510 10512 10513 10514 10517 10521 10524 10526 10528 10529 10531 10533 10534 10536 10537 10538 10539 10540 10542 10544 10546 10548 10550 10551 10552 10554 10555 10557 10558 10560 10561 10563 10565 10566 10568 10569 10571 10572 10574 10576 10578 10580 10581 10582 10584 10586 10587 10589 10591 10592 10595 10597 10598 10601 10606 10609 10610 10608 10604 10605 10608 10610 10613 10616 10617 10619 10622 10624 10626 10629 10629 10630 10631 10632 10633 10635
10484 10487 10490 10489 10488 10492 10495 10496 10499 10501 10502 10504 10506 10509 10513 10516 10518 10520 10521 10522 10524 10526 10528 10529 10529 10530 10531 10533 10534 10536 10538 10539 10540 10542 10544 10546 10547 10549 10550 10552 10554 10555 10557 10559 10560 10562 10563 10564 10565 10567 10569 10570 10571 10572 10575 10577 10579 10581 10582 10584 10587 10589 10591 10595 10599 10601 10602 10599 10597 10598 10601 10604 10606 10607 10610 10613 10616 10618 10621 10622 10623 10624 10624 10625 10628
10474 10477 10478 10477 10477 10481 10483 10485 10488 10490 10492 10494 10497 10501 10504 10507 10510 10512 10513 10514 10515 10517 10518 10518 10519 10520 10521 10523 10525 10526 10528 10529 10530 10531 10533 10534 10536 10538 10540 10541 10543 10545 10547 10549 10551 10552 10553 10554 10555 10557 10558 10559 10560 10561 10564 10566 10568 10570 10572 10573 10576 10579 10581 10584 10588 10591 10594 10594 10590 10589 10591 10595 10597 10597 10599 10604 10607 10609 10612 10614 10615 10616 10617 10618 10620
10463 10465 10467 10467 10468 10470 10470 10472 10475 10478 10481 10485 10488 10492 10495 10498 10501 10503 10504 10505 10506 10507 10507 10507 10507 10508 10510 10512 10514 10515 10517 10518 10519 10520 10521 10523 10524 10526 10528 10529 10531 10533 10535 10538 10540 10541 10542 10543 10544 10546 10548 10549 10550 10551 10553 10555 10557 10559 10561 10563 10565 10568 10571 10573 10576 10580 10584 10586 10584 10581 10582 10585 10587 10588 10589 10593 10597 10600 10602 10604 10606 10608 10610 10611 10612
10452 10453 10454 10456 10458 10458 10459 10460 10462 10466 10469 10474 10478 10482 10487 10490 10492 10493 10493 10495 10496 10496 10496 10496 10496 10497 10499 10500 10502 10503 10505 10506 10507 10508 10510 10512 10513 10514 10516 10517 10519 10521 10523 10526 10527 10529 10530 10531 10532 10534 10537 10539 10540 10541 10542 10544 10547 10548 10550 10551 10553 10556 10559 10561 10564 10569 10573 10575 10576 10574 10573 10575 10578 10579 10579 10582 10587 10590 10591 10594 10598 10600 10602 10604 10605
10440 10441 10442 10444 10446 10446 10447 10449 10451 10454 10457 10461 10466 10473 10480 10482 10481 10481 10481 10481 10483 10484 10485 10484 10484 10485 10487 10488 10490 10491 10492 10493 10495 10497 10499 10500 10502 10503 10504 10506 10508 10510 10512 10513 10515 10516 10518 10519 10521 10522 10524 10527 10528 10529 10531 10532 10535 10537 10538 10539 10542 10545 10547 10549 10552 10556 10560 10564 10566 10565 10565 10567 10569 10570 10569 10570 10576 10579 10580 10585 10589 10590 10592 10596 10598
10427 10429 10431 10432 10433 10434 10435 10438 10441 10443 10445 10449 10454 10461 10467 10468 10466 10465 10464 10465 10468 10471 10472 10472 10471 10472 10474 10475 10476 10477 10479 10481 10482 10484 10486 10488 10489 10491 10493 10496 10498 10499 10501 10502 10503 10505 10506 10507 10509 10510 10512 10514 10516 10517 10519 10520 10523 10525 10526 10527 10530 10533 10535 10538 10540 10543 10547 10552 10555 10555 10556 10559 10559 10559 10559 10559 10563 10567 10570 10575 10580 10581 10582 10588 10591
10416 10418 10420 10421 10421 10422 10423 10426 10430 10432 10433 10436 10440 10445 10449 10453 10452 10448 10447 10449 10454 10456 10457 10457 10457 10457 10459 10460 10461 10463 10465 10467 10469 10470 10472 10475 10478 10481 10483 10485 10487 10488 10490 10491 10492 10493 10494 10496 10497 10499 10500 10502 10503 10505 10507 10508 10509 10512 10513 10515 10517 10521 10524 10526 10528 10531 10534 10539 10543 10544 10547 10549 10547 10547 10548 10548 10550 10556 10559 10564 10570 10572 10573 10579 10582
10407 10408 10409 10409 10410 10411 10413 10414 10417 10420 10422 10423 10426 10430 10435 10439 10439 10437 10436 10436 10438 10441 10442 10442 10441 10442 10443 10444 10446 10449 10451 10453 10454 10457 10459 10463 10467 10470 10472 10474 10475 10477 10479 10480 10480 10481 10482 10484 10485 10487 10488 10489 10490 10492 10494 10495 10496 10498 10500 10502 10504 10507 10511 10514 10516 10519 10522 10526 10530 10532 10535 10538 10535 10534 10538 10539 10540 10544 10549 10554 10560 10563 10565 10569 10572
10399 10399 10399 10398 10399 10399 10401 10403 10404 10407 10410 10412 10413 10417 10422 10426 10428 10429 10428 10426 10426 10430 10431 10428 10427 10428 10430 10432 10434 10436 10438 10439 10441 10445 10448 10451 10454 10457 10460 10462 10464 10465 10467 10468 10469 10469 10470 10471 10473 10475 10475 10476 10477 10479 10480 10481 10483 10484 10487 10489 10491 10494 10497 10500 10503 10505 10509 10514 10518 10520 10523 10524 10523 10522 10525 10528 10530 10535 10540 10544 10549 10553 10555 10559 10562
10391 10391 10390 10389 10389 10388 10389 10391 10392 10394 10398 10401 10402 10404 10408 10412 10416 10418 10418 10416 10417 10420 10419 10416 10415 10417 10418 10420 10421 10422 10424 10427 10430 10433 10436 10438 10442 10445 10448 10450 10452 10453 10454 10455 10456 10457 10458 10459 10461 10462 10462 10463 10464 10465 10466 10468 10469 10471 10474 10476 10479 10480 10482 10486 10489 10492 10495 10500 10505 10509 10509 10510 10512 10512 10512 10516 10522 10526 10530 10533 10536 10541 10544 10548 10552
10380 10381 10381 10380 10380 10379 10379 10379 10380 10382 10385 10389 10390 10392 10394 10399 10404 10406 10407 10408 10408 10409 10407 10404 10403 10405 10406 10407 10408 10409 10412 10415 10418 10421 10424 10426 10429 10432 10435 10438 10440 10441 10442 10442 10444 10445 10446 10447 10449 10449 10449 10449 10450 10451 10452 10454 10456 10458 10461 10463 10465 10466 10468 10471 10474 10478 10481 10485 10491 10496 10495 10497 10502 10502 10500 10505 10512 10516 10519 10522 10524 10528 10532 10536 10541
10369 10370 10370 10370 10370 10370 10369 10369 10369 10371 10374 10376 10378 10379 10382 10387 10391 10394 10395 10397 10399 10398 10394 10389 10388 10391 10394 10396 10397 10399 10402 10405 10407 10410 10412 10415 10417 10420 10423 10425 10427 10428 10429 10430 10432 10433 10434 10435 10436 10436 10436 10436 10436 10437 10439 10441 10443 10446 10447 10449 10451 10452 10454 10456 10458 10462 10467 10471 10476 10481 10482 10484 10490 10492 10491 10493 10500 10504 10506 10509 10513 10516 10520 10525 10528
10358 10359 10360 10360 10359 10359 10359 10359 10360 10361 10363 10364 10366 10369 10372 10374 10378 10382 10384 10385 10386 10384 10379 10375 10376 10379 10383 10385 10387 10390 10391 10394 10397 10399 10401 10404 10406 10409 10411 10412 10414 10415 10416 10418 10419 10421 10421 10422 10423 10423 10423 10423 10422 10422 10424 10427 10430 10432 10433 10434 10435 10436 10438 10439 10441 10446 10452 10458 10463 10468 10471 10473 10476 10480 10481 10481 10486 10490 10492 10497 10502 10504 10507 10512 10515
10346 10347 10349 10350 10350 10349 10349 10349 10350 10351 10353 10354 10356 10359 10361 10363 10365 10369 10371 10372 10373 10372 10368 10366 10366 10368 10371 10373 10376 10377 10380 10383 10385 10388 10390 10392 10395 10397 10398 10399 10400 10402 10403 10405 10406 10407 10407 10407 10408 10409 10409 10409 10408 10409 10410 10412 10414 10415 10416 10417 10418 10420 10422 10421 10424 10431 10438 10445 10452 10457 10461 10463 10464 10466 10467 10468 10472 10476 10479 10486 10489 10489 10493 10500 10504
10333 10335 10337 10339 10340 10340 10340 10340 10341 10342 10343 10345 10346 10349 10351 10352 10354 10355 10358 10360 10361 10361 10358 10357 10357 10358 10360 10362 10363 10364 10366 10370 10374 10377 10379 10381 10383 10385 10386 10387 10388 10390 10391 10392 10392 10392 10392 10392 10392 10393 10394 10394 10394 10395 10394 10394 10395 10396 10397 10399 10402 10404 10405 10404 10409 10417 10425 10434 10441 10445 10449 10451 10451 10452 10452 10454 10457 10461 10467 10474 10473 10472 10480 10488 10490
10322 10326 10328 10328 10329 10330 10331 10332 10333 10335 10335 10336 10337 10339 10340 10341 10342 10343 10345 10348 10350 10350 10349 10348 10348 10348 10350 10351 10352 10353 10355 10357 10360 10363 10366 10368 10370 10372 10374 10376 10377 10378 10379 10379 10378 10377 10377 10377 10376 10377 10378 10378 10377 10377 10375 10374 10375 10377 10378 10382 10387 10389 10388 10390 10396 10405 10412 10420 10426 10430 10434 10436 10437 10439 10439 10439 10441 10445 10452 10458 10457 10458 10467 10474 10475
10313 10317 10318 10318 10318 10319 10321 10322 10324 10327 10328 10327 10328 10329 10330 10330 10331 10333 10334 10335 10337 10338 10338 10337 10337 10338 10339 10341 10343 10345 10346 10346 10348 10350 10352 10354 10356 10358 10360 10361 10363 10364 10365 10365 10364 10363 10362 10361 10360 10359 10359 10359 10359 10358 10358 10358 10359 10362 10364 10367 10372 10374 10374 10379 10386 10392 10398 10404 10409 10413 10417 10419 10421 10424 10425 10425 10426 10429 10435 10440 10442 10445 10452 10458 10461
10305 10307 10308 10308 10309 10310 10311 10312 10314 10317 10318 10318 10319 10320 10321 10321 10321 10322 10322 10322 10324 10327 10327 10327 10328 10329 10331 10333 10334 10336 10337 10337 10338 10339 10341 10342 10343 10344 10345 10347 10348 10350 10351 10351 10350 10349 10348 10346 10345 10344 10343 10343 10343 10343 10344 10344 10346 10349 10351 10354 10357 10360 10363 10369 10374 10377 10382 10387 10390 10393 10398 10401 10403 10406 10409 10410 10411 10412 10417 10423 10427 10432 10438 10443 10447
10296 10297 10298 10299 10300 10301 10302 10303 10304 10306 10308 10309 10310 10311 10312 10313 10313 10313 10313 10312 10315 10317 10318 10318 10320 10321 10323 10324 10326 10327 10328 10328 10328 10329 10330 10331 10332 10332 10333 10335 10336 10338 10339 10339 10337 10336 10335 10334 10332 10330 10329 10329 10329 10330 10332 10333 10335 10337 10340 10342 10345 10348 10351 10356 10359 10361 10364 10368 10370 10374 10378 10380 10383 10386 10389 10391 10394 10395 10399 10406 10411 10418 10424 10430 10434
10287 10288 10289 10290 10290 10292 10293 10294 10295 10297 10298 10300 10301 10301 10301 10302 10303 10304 10304 10305 10305 10306 10307 10308 10310 10312 10314 10316 10317 10318 10318 10319 10319 10320 10320 10321 10321 10322 10323 10324 10325 10326 10328 10328 10326 10325 10324 10322 10320 10318 10317 10318 10319 10320 10322 10323 10324 10325 10327 10329 10332 10334 10338 10343 10345 10345 10347 10349 10351 10355 10357 10359 10362 10365 10368 10372 10375 10379 10385 10391 10397 10404 10412 10418 10422
10279 10279 10279 10280 10281 10283 10285 10286 10288 10289 10289 10290 10292 10291 10291 10292 10294 10295 10295 10296 10296 10296 10297 10299 10300 10302 10304 10306 10307 10308 10308 10308 10309 10310 10310 10311 10312 10312 10313 10314 10315 10315 10316 10316 10315 10314 10312 10311 10310 10309 10310 10310 10311 10311 10312 10312 10312 10313 10314 10316 10319 10322 10326 10329 10330 10330 10331 10332 10334 10336 10338 10340 10343 10347 10350 10355 10360 10367 10373 10380 10386 10393 10400 10406 10411
10268 10268 10269 10270 10271 10273 10276 10278 10278 10279 10279 10281 10282 10282 10282 10284 10285 10285 10285 10286 10286 10287 10289 10291 10292 10294 10295 10296 10296 10297 10298 10299 10300 10300 10301 10302 10302 10303 10303 10303 10303 10304 10304 10304 10303 10303 10304 10304 10304 10303 10302 10301 10301 10301 10301 10302 10302 10302 10303 10305 10308 10310 10313 10315 10316 10317 10318 10319 10319 10320 10322 10324 10327 10331 10336 10342 10349 10356 10363 10369 10375 10381 10387 10394 10400
10258 10258 10259 10261 10263 10264 10266 10267 10267 10268 10269 10270 10272 10273 10274 10274 10275 10275 10275 10277 10278 10279 10281 10283 10284 10286 10286 10287 10287 10288 10288 10290 10291 10292 10292 10293 10293 10294 10293 10293 10293 10292 10291 10291 10293 10296 10297 10297 10295 10294 10292 10291 10291 10291 10291 10291 10291 10292 10293 10295 10297 10299 10300 10302 10304 10305 10306 10306 10305 10307 10308 10310 10315 10320 10326 10332 10339 10344 10349 10355 10363 10369 10375 10381 10387
10249 10250 10252 10254 10254 10255 10256 10256 10257 10258 10260 10261 10263 10264 10264 10265 10266 10267 10268 10268 10270 10271 10273 10275 10276 10277 10278 10278 10278 10279 10279 10281 10283 10283 10283 10284 10284 10284 10284 10284 10283 10280 10280 10283 10287 10289 10288 10286 10285 10285 10283 10282 10281 10281 10282 10282 10282 10283 10284 10285 10287 10288 10289 10291 10293 10294 10294 10294 10294 10296 10298 10301 10306 10311 10315 10321 10326 10331 10336 10343 10351 10358 10363 10368 10374
10242 10244 10245 10245 10245 10246 10247 10248 10249 10250 10251 10252 10253 10253 10254 10256 10257 10258 10259 10261 10262 10264 10265 10266 10267 10267 10269 10269 10270 10271 10272 10274 10275 10275 10275 10275 10276 10275 10274 10273 10271 10271 10274 10279 10280 10278 10277 10277 10276 10275 10274 10273 10272 10273 10274 10274 10274 10274 10275 10276 10278 10279 10280 10282 10283 10284 10284 10284 10286 10287 10289 10292 10296 10300 10304 10310 10314 10318 10323 10330 10338 10344 10349 10355 10362
10234 10236 10236 10235 10236 10238 10239 10240 10241 10241 10242 10243 10243 10244 10246 10247 10249 10250 10251 10253 10255 10256 10257 10257 10258 10259 10260 10261 10263 10264 10265 10266 10267 10267 10268 10267 10266 10265 10263 10262 10263 10268 10271 10272 10270 10268 10268 10268 10267 10265 10266 10266 10265 10265 10266 10267 10267 10267 10267 10268 10269 10271 10273 10274 10275 10275 10276 10277 10278 10279 10280 10283 10286 10290 10294 10299 10302 10306 10312 10319 10325 10330 10336 10343 10350
10225 10226 10227 10227 10229 10230 10231 10232 10232 10232 10233 10234 10235 10237 10238 10240 10241 10242 10244 10245 10246 10247 10249 10249 10250 10251 10253 10255 10257 10258 10258 10259 10259 10259 10258 10257 10255 10254 10255 10257 10261 10265 10264 10262 10261 10261 10260 10259 10258 10259 10259 10259 10259 10259 10260 10260 10260 10260 10260 10261 10262 10263 10265 10267 10268 10268 10269 10270 10270 10270 10272 10275 10277 10281 10284 10288 10292 10296 10302 10308 10313 10319 10324 10331 10336
10216 10218 10219 10220 10221 10222 10223 10223 10223 10224 10225 10227 10229 10230 10232 10233 10234 10236 10237 10238 10240 10241 10242 10243 10244 10245 10247 10249 10250 10251 10252 10252 10251 10250 10249 10247 10246 10247 10250 10255 10258 10257 10255 10254 10254 10254 10253 10252 10253 10253 10253 10254 10254 10254 10253 10254 10254 10253 10254 10254 10255 10256 10258 10259 10260 10261 10262 10261 10262 10263 10265 10267 10270 10273 10276 10280 10284 10288 10293 10297 10302 10307 10312 10317 10321
10208 10210 10211 10212 10214 10215 10215 10215 10215 10217 10219 10222 10223 10225 10226 10227 10228 10230 10232 10234 10235 10235 10236 10237 10238 10240 10241 10242 10243 10244 10244 10244 10243 10242 10240 10240 10241 10243 10247 10250 10250 10249 10248 10248 10247 10247 10247 10247 10248 10248 10248 10248 10248 10247 10247 10247 10247 10247 10248 10248 10249 10250 10251 10252 10253 10254 10254 10255 10256 10257 10259 10261 10263 10266 10269 10273 10276 10280 10284 10287 10292 10296 10300 10304 10308
10202 10203 10204 10206 10207 10208 10208 10209 10210 10212 10215 10216 10218 10219 10221 10222 10224 10226 10228 10229 10229 10230 10231 10232 10233 10234 10235 10236 10237 10237 10237 10236 10235 10234 10234 10235 10237 10239 10241 10244 10244 10242 10241 10242 10242 10242 10243 10243 10243 10243 10242 10242 10241 10241 10241 10241 10241 10242 10242 10242 10243 10244 10245 10246 10247 10248 10248 10249 10250 10251 10253 10255 10258 10260 10263 10266 10268 10272 10275 10279 10282 10286 10290 10293 10297
10196 10197 10198 10199 10200 10201 10203 10204 10206 10208 10210 10211 10213 10215 10216 10218 10220 10222 10223 10224 10225 10226 10227 10227 10228 10229 10229 10230 10230 10230 10230 10229 10228 10228 10229 10231 10232 10234 10236 10237 10238 10237 10236 10236 10237 10237 10238 10238 10237 10236 10236 10236 10235 10235 10236 10236 10236 10236 10237 10237 10238 10239 10240 10241 10241 10242 10243 10243 10244 10246 10248 10250 10252 10254 10256 10259 10261 10264 10268 10271 10274 10277 10280 10283 10287
10190 10191 10192 10193 10194 10196 10199 10201 10202 10204 10206 10208 10209 10211 10213 10215 10216 10218 10219 10220 10221 10222 10222 10223 10222 10222 10222 10223 10223 10224 10224 10223 10223 10223 10225 10226 10227 10229 10230 10232 10232 10231 10231 10231 10231 10232 10232 10232 10232 10231 10230 10230 10230 10230 10230 10231 10231 10231 10232 10233 10234 10234 10235 10236 10236 10236 10237 10238 10239 10241 10242 10244 10246 10248 10250 10252 10254 10257 10260 10262 10265 10268 10271 10274 10279
10184 10185 10187 10189 10191 10193 10196 10197 10199 10201 10203 10204 10206 10208 10209 10211 10213 10214 10215 10216 10217 10217 10218 10218 10217 10217 10216 10217 10218 10219 10218 10218 10218 10219 10220 10221 10223 10224 10225 10226 10226 10226 10226 10226 10226 10226 10227 10227 10227 10226 10226 10226 10226 10226 10226 10226 10227 10227 10228 10228 10229 10229 10230 10231 10231 10232 10232 10233 10235 10236 10237 10238 10240 10241 10243 10245 10247 10250 10252 10255 10257 10260 10263 10267 10271
10179 10181 10184 10186 10189 10191 10192 10194 10196 10198 10199 10201 10203 10205 10207 10208 10209 10210 10211 10212 10212 10213 10213 10212 10212 10212 10212 10212 10214 10214 10213 10213 10214 10215 10215 10217 10219 10220 10220 10221 10222 10221 10221 10221 10221 10221 10222 10222 10222 10222 10222 10222 10222 10221 10221 10222 10222 10223 10223 10224 10224 10225 10226 10227 10228 10228 10229 10230 10230 10231 10232 10233 10235 10236 10238 10240 10242 10244 10246 10248 10250 10253 10257 10260 10265
10176 10178 10181 10184 10186 10188 10190 10192 10194 10195 10196 10198 10201 10202 10204 10205 10206 10207 10207 10208 10208 10209 10208 10207 10207 10207 10208 10208 10209 10208 10208 10209 10210 10211 10211 10213 10215 10215 10215 10216 10217 10217 10217 10216 10216 10217 10217 10218 10217 10217 10218 10218 10217 10217 10217 10218 10219 10219 10220 10220 10221 10222 10223 10224 10225 10225 10226 10226 10226 10227 10228 10229 10230 10232 10233 10235 10236 10238 10240 10242 10245 10248 10251 10254 10258
10172 10175 10178 10180 10182 10185 10187 10189 10190 10192 10194 10196 10197 10199 10200 10201 10202 10202 10203 10204 10204 10204 10203 10202 10202 10202 10203 10204 10204 10204 10204 10205 10205 10206 10208 10210 10211 10211 10211 10212 10212 10213 10212 10212 10212 10213 10213 10213 10213 10213 10214 10214 10213 10214 10214 10215 10215 10216 10216 10217 10218 10219 10220 10221 10222 10222 10223 10223 10223 10224 10225 10225 10226 10227 10229 10230 10231 10233 10235 10237 10240 10242 10246 10249 10253
10169 10172 10175 10177 10179 10181 10183 10185 10187 10189 10191 10192 10194 10195 10196 10197 10197 10198 10198 10198 10199 10199 10199 10198 10198 10199 10199 10200 10199 10200 10200 10201 10201 10203 10205 10207 10207 10207 10207 10207 10208 10208 10208 10208 10209 10209 10209 10209 10210 10210 10210 10210 10210 10210 10211 10211 10212 10213 10213 10214 10215 10216 10217 10218 10219 10219 10220 10220 10221 10221 10221 10222 10223 10224 10225 10226 10227 10229 10231 10233 10235 10237 10240 10244 10247
10166 10169 10171 10174 10175 10177 10180 10182 10184 10186 10187 10189 10190 10191 10192 10192 10193 10193 10193 10194 10194 10195 10194 10194 10194 10195 10195 10196 10196 10196 10197 10197 10198 10199 10201 10203 10204 10204 10204 10204 10204 10204 10205 10205 10206 10205 10205 10206 10206 10206 10206 10207 10207 10207 10208 10208 10209 10210 10210 10211 10212 10213 10215 10216 10216 10217 10217 10218 10218 10218 10219 10219 10220 10221 10222 10223 10224 10225 10227 10229 10231 10233 10236 10239 10242
10163 10165 10167 10169 10170 10173 10175 10178 10180 10182 10183 10185 10186 10186 10187 10188 10189 10189 10189 10189 10190 10190 10190 10190 10190 10191 10191 10192 10192 10192 10193 10194 10195 10196 10198 10200 10201 10201 10200 10200 10201 10201 10201 10202 10202 10202 10202 10203 10203 10203 10203 10203 10203 10204 10205 10205 10206 10207 10208 10209 10210 10211 10212 10213 10214 10215 10215 10215 10215 10215 10216 10217 10218 10219 10219 10220 10221 10222 10224 10225 10227 10230 10232 10236 10239
10159 10161 10162 10164 10166 10168 10171 10173 10175 10177 10179 10180 10181 10182 10183 10184 10184 10185 10185 10185 10185 10185 10185 10186 10187 10187 10187 10188 10189 10189 10190 10191 10191 10193 10194 10196 10198 10197 10197 10197 10197 10197 10198 10199 10199 10199 10199 10200 10199 10199 10199 10200 10200 10201 10202 10203 10204 10204 10205 10206 10208 10209 10210 10211 10212 10213 10213 10213 10213 10213 10214 10214 10215 10216 10217 10217 10218 10219 10221 10222 10224 10226 10229 10232 10236
10155 10156 10158 10160 10162 10165 10168 10170 10172 10173 10175 10176 10177 10178 10179 10180 10180 10180 10181 10181 10181 10181 10181 10182 10183 10183 10184 10185 10185 10186 10186 10187 10188 10189 10191 10193 10194 10194 10194 10193 10193 10194 10195 10196 10196 10196 10196 10196 10196 10196 10196 10197 10198 10199 10199 10200 10201 10202 10203 10204 10205 10207 10208 10209 10210 10211 10211 10211 10211 10211 10211 10212 10213 10213 10214 10215 10216 10217 10219 10220 10222 10224 10226 10229 10232
10149 10151 10153 10155 10158 10160 10163 10165 10167 10169 10170 10172 10173 10173 10174 10175 10176 10176 10176 10177 10177 10176 10177 10178 10179 10179 10180 10181 10182 10182 10183 10184 10185 10186 10187 10189 10191 10191 10191 10190 10190 10191 10192 10193 10193 10193 10193 10193 10193 10193 10193 10194 10195 10196 10197 10198 10199 10200 10201 10202 10203 10205 10206 10207 10208 10209 10210 10210 10210 10210 10210 10211 10211 10212 10212 10213 10214 10216 10217 10218 10220 10222 10225 10227 10230
10144 10146 10148 10150 10153 10156 10158 10160 10162 10163 10165 10166 10167 10168 10169 10170 10171 10172 10172 10173 10172 10172 10172 10174 10175 10175 10176 10178 10179 10179 10180 10181 10182 10182 10184 10186 10187 10188 10188 10188 10188 10188 10189 10190 10190 10190 10190 10190 10190 10190 10191 10192 10193 10194 10195 10196 10198 10199 10200 10201 10202 10203 10204 10205 10207 10208 10208 10209 10209 10209 10210 10210 10210 10211 10211 10212 10213 10214 10216 10217 10219 10221 10223 10226 10229
10139 10141 10143 10146 10148 10150 10152 10154 10156 10158 10159 10160 10162 10163 10164 10166 10167 10168 10168 10168 10168 10168 10168 10169 10171 10172 10173 10174 10175 10176 10176 10177 10178 10179 10181 10182 10183 10184 10185 10185 10185 10186 10186 10187 10187 10187 10187 10187 10188 10188 10188 10189 10190 10192 10193 10194 10196 10197 10198 10199 10200 10201 10203 10204 10205 10206 10207 10208 10208 10209 10209 10210 10210 10210 10211 10211 10212 10214 10215 10217 10219 10220 10222 10225 10227
10134 10136 10138 10141 10143 10145 10147 10149 10150 10152 10154 10155 10157 10158 10159 10161 10162 10163 10164 10164 10164 10164 10164 10165 10167 10167 10169 10170 10172 10172 10173 10174 10175 10176 10177 10179 10180 10181 10182 10182 10182 10183 10183 10184 10184 10184 10184 10185 10185 10185 10185 10186 10188 10190 10191 10192 10193 10195 10196 10197 10199 10200 10201 10203 10204 10205 10206 10207 10208 10208 10209 10209 10210 10210 10211 10211 10212 10213 10214 10216 10218 10219 10221 10224 10226
10129 10131 10133 10135 10138 10140 10142 10143 10145 10147 10149 10150 10152 10153 10154 10156 10157 10158 10159 10159 10160 10160 10160 10161 10162 10163 10165 10166 10168 10169 10170 10171 10171 10173 10174 10176 10177 10179 10179 10179 10180 10180 10181 10181 10181 10181 10181 10182 10182 10183 10183 10184 10185 10187 10188 10190 10191 10193 10194 10195 10197 10198 10200 10201 10203 10204 10205 10206 10207 10208 10209 10209 10209 10210 10210 10211 10212 10213 10214 10215 10217 10219 10221 10223 10225
10124 10126 10128 10130 10133 10135 10137 10139 10140 10142 10143 10145 10146 10148 10149 10151 10152 10153 10154 10155 10155 10156 10156 10157 10158 10159 10161 10162 10164 10165 10167 10167 10168 10169 10171 10173 10175 10176 10177 10177 10177 10178 10178 10178 10178 10178 10179 10179 10180 10180 10181 10182 10183 10184 10186 10187 10189 10191 10192 10193 10195 10196 10198 10200 10201 10203 10204 10205 10206 10207 10208 10208 10209 10210 10210 10211 10212 10213 10214 10216 10217 10219 10221 10223 10225
10120 10121 10123 10125 10128 10130 10132 10134 10135 10136 10138 10139 10141 10143 10144 10146 10147 10148 10149 10150 10151 10151 10152 10153 10154 10155 10157 10158 10160 10162 10163 10164 10165 10166 10167 10169 10172 10173 10174 10174 10175 10175 10175 10175 10175 10175 10176 10176 10177 10178 10179 10180 10181 10182 10183 10185 10187 10188 10190 10191 10193 10195 10196 10198 10199 10201 10202 10204 10205 10206 10206 10207 10208 10209 10210 10211 10213 10214 10215 10217 10218 10220 10221 10223 10224